Regional Weather Roundup
Issued by NWS Memphis, TN

Home | Current Version | Previous Version | Text Only | Print | Product List | Glossary On
Versions: 1 2 3 4 5 6 7 8 9 10 11 12 13 14 15 16 17 18 19 20 21 22 23 24 25 26 27 28 29 30 31 32 33 34 35 36 37 38 39 40 41 42 43 44 45 46 47 48 49 50
000
ASUS44 KMEG 030500
RWRMEG
MEMPHIS CWA HOURLY WEATHER ROUNDUP
NATIONAL WEATHER SERVICE MEMPHIS TN
1200 AM CDT THU SEP 03 2015

...WEST TENNESSEE...

CITY           SKY/WX    TMP DP  RH WIND       PRES   REMARKS
MEMPHIS INTL   CLEAR     76  71  85 CALM      30.02R
NWS MEMPHIS      N/A    N/A N/A N/A MISG        N/A
JACKSON        CLEAR     73  70  90 CALM      30.03R
LEXINGTON      CLEAR     70  70 100 CALM      30.02S
DYERSBURG      CLEAR     73  72  94 CALM      30.03S
UNION CITY     CLEAR    N/A N/A N/A CALM      30.01S
PARIS          CLEAR     70  66  88 CALM      30.04R


...EASTERN ARKANSAS...

CITY           SKY/WX    TMP DP  RH WIND       PRES   REMARKS
JONESBORO      CLEAR     71  71 100 CALM      30.01R
WEST MEMPHIS   CLEAR     72  72 100 SE3       30.00R
BATESVILLE     CLEAR     73  70  88 CALM      30.01S
WALNUT RIDGE   CLEAR     75  68  78 CALM      30.01S
BLYTHEVILLE    CLEAR     73  71  93 SE3       30.02R
SEARCY         CLEAR     71  70  96 W3        30.02S
STUTTGART      CLEAR     73  66  78 CALM      30.01R
PINE BLUFF     CLEAR     71  70  96 CALM      30.00S FOG
MONTICELLO     CLEAR     72  72 100 CALM      29.99F


...NORTH MISSISSIPPI...

CITY           SKY/WX    TMP DP  RH WIND       PRES   REMARKS
TUPELO         CLEAR     73  71  93 CALM      30.02R
OXFORD         CLEAR     68  68 100 CALM      30.04S
OLIVE BRANCH   CLEAR     72  72 100 CALM      30.03R
GREENWOOD      CLEAR     72  69  90 CALM      30.00S
COLUMBUS       CLOUDY    75  73  95 CALM      29.99F
STARKVILLE     FAIR      72  70  94 CALM      30.01S FOG
GOLDEN TRIANGL MOCLDY    75  70  83 CALM      30.00S


...SOUTHEAST MISSOURI...

CITY           SKY/WX    TMP DP  RH WIND       PRES   REMARKS
WEST PLAINS    CLEAR     75  67  76 CALM      30.06S
POPLAR BLUFF   CLEAR     71  70  96 CALM      30.00F
CAPE GIRARDEAU CLEAR     70  69  97 SE3       30.01F


...NORTHWEST ALABAMA...

CITY           SKY/WX    TMP DP  RH WIND       PRES   REMARKS
MUSCLE SHOALS  MOCLDY    75  72  90 CALM      30.03F


...MIDDLE TENNESSEE...

CITY           SKY/WX    TMP DP  RH WIND       PRES   REMARKS
NASHVILLE      MOCLDY    77  69  76 CALM      30.02F
CLARKSVILLE    CLEAR     72  67  84 CALM      30.02F
COLUMBIA       CLEAR     75  75 100 CALM      30.02S


...WESTERN KENTUCKY...

CITY           SKY/WX    TMP DP  RH WIND       PRES   REMARKS
PADUCAH        CLEAR     69  67  93 CALM      30.01S


...CENTRAL ARKANSAS...

CITY           SKY/WX    TMP DP  RH WIND       PRES   REMARKS
LITTLE ROCK    CLEAR     76  72  87 CALM      30.01R


SKY/WX REPORTED AS FAIR MEANS FEW OR NO CLOUDS BELOW
12 THOUSAND FEET.




USA.gov is the U.S. government's official web portal to all federal, state and local government web resources and services.